Flag Weather past 2 weeks in Fredericton, New Brunswick, Canada

Now
48 °F

Passing clouds.


Feels Like: 46 °F
Forecast: 30 / 40 °F
Wind: 5 mph from West

Location: Fredericton

Current Time: Nov 25, 2014 at 8:49:59 PM

Latest Report: Nov 25, 2014 at 8:00 PM


Visibility: 9 mi

Pressure: 29.84 "Hg

Humidity: 58%

Dew point: 34 °F

Location of FrederictonLocation

Historic Weather in Fredericton — Graph

°F

Fredericton temperature yesterday

Maximum temperature yesterday: 61 °F (at 9:55 PM)
Minimum temperature yesterday: 34 °F (at 5:00 AM)
Average temperature yesterday: 47 °F

Past Weeks' High & Low Weather Summary

 TemperatureHumidityPressure
High61 °F (Nov 24, 9:55 PM)100% (Nov 10, 11:00 PM)30.32 "Hg (Nov 10, 11:00 PM)
Low12 °F (Nov 22, 6:00 AM)38% (Nov 15, 3:00 PM)29.28 "Hg (Nov 18, 6:00 AM)
Average34 °F80%29.92 "Hg
* Reported Nov 10 7:00 PM — Nov 25 7:00 PM, Fredericton, Weather by CustomWeather, © 2014

Note: Actual official high and low records may vary slightly from our data, if they occured in-between our weather recording intervals... More about our weather records

Advertising

Fredericton weather history for previous 24 hours

 ConditionsComfort  
Time TempWeatherWind HumidityBarometerVisibility
7:00 PM
Nov 25
48 °FPassing clouds.6 mph66%29.80 "Hg9 mi
6:00 PM48 °FOvercast.5 mph71%29.78 "Hg9 mi
5:00 PM52 °FClear.2 mph62%29.76 "Hg9 mi
4:00 PM54 °FPartly sunny.8 mph58%29.74 "Hg9 mi
3:00 PM57 °FPartly sunny.9 mph59%29.72 "Hg9 mi
2:00 PM57 °FSunny.7 mph72%29.70 "Hg9 mi
1:00 PM57 °FPartly sunny.9 mph77%29.70 "Hg9 mi
12:53 PM59 °FBroken clouds.12 mph72%29.70 "Hg9 mi
12:00 PM59 °FPassing clouds.16 mph77%29.70 "Hg9 mi
11:00 AM55 °FSunny.14 mph88%29.69 "Hg9 mi
10:00 AM55 °FSunny.16 mph88%29.67 "Hg9 mi
9:00 AM54 °FSunny.13 mph94%29.65 "Hg9 mi
8:00 AM54 °FSunny.10 mph94%29.62 "Hg9 mi
7:00 AM52 °FClear.3 mph94%29.60 "Hg9 mi
6:00 AM54 °FClear.10 mph94%29.58 "Hg9 mi
5:00 AM55 °FPassing clouds.10 mph88%29.59 "Hg9 mi
4:00 AM57 °FPassing clouds.12 mph88%29.59 "Hg9 mi
3:00 AM57 °FPartly cloudy.16 mph88%29.56 "Hg9 mi
2:00 AM59 °FMostly cloudy.14 mph88%29.55 "Hg9 mi
1:00 AM59 °FMostly cloudy.16 mph88%29.52 "Hg9 mi
12:00 AM59 °FLight rain. Mostly cloudy.13 mph88%29.52 "Hg9 mi
11:53 PM
Nov 24
59 °FLight rain. Mostly cloudy.13 mph88%29.52 "Hg9 mi
11:00 PM59 °FMostly cloudy.12 mph94%29.52 "Hg9 mi
10:00 PM59 °FLight rain. Mostly cloudy.14 mph94%29.54 "Hg9 mi
9:55 PM61 °FLight rain. Overcast.17 mph88%29.54 "Hg9 mi
9:00 PM59 °FMostly cloudy.17 mph94%29.54 "Hg9 mi
8:58 PM59 °FOvercast.14 mph94%29.54 "Hg9 mi
8:00 PM57 °FFog.13 mph100%29.56 "Hg5 mi
Weather by CustomWeather, © 2014

See weather overviewHow to use our weather pages